When you browse on this site, cookies collect data to enhance your experience and personalize the content and advertising you see.
Visit our Privacy Policy to learn more. By continuing to use the site, you agree to this use of cookies and data.
  • In Lithuania
  • List of Countries
  • For 7 days
  • Water Temperature
  • Satellite Maps
  • Weather Map
  • Weather Widgets
  • user-avatar
    Login

    Hourly Weather Wien

    Today, 22 May, Wednesday

    Time Temperature Precipitation Wind Pressure Humidity
    00:00 +13°C° 0 mm 6 mps 738 mmHg 73%
    01:00 +12°C° 0 mm 7 mps 738 mmHg 74%
    02:00 +12°C° 0.1 mm 7 mps 738 mmHg 75%
    03:00 +13°C° 0.1 mm 6 mps 738 mmHg 77%
    04:00 +13°C° 0.1 mm 6 mps 738 mmHg 79%
    05:00 +13°C° 0.4 mm 6 mps 738 mmHg 80%
    06:00 +12°C° 0.4 mm 7 mps 738 mmHg 82%
    07:00 +13°C° 0 mm 6 mps 738 mmHg 85%
    08:00 +13°C° 0.7 mm 6 mps 738 mmHg 85%
    09:00 +14°C° 0.7 mm 7 mps 738 mmHg 85%
    10:00 +14°C° 0.7 mm 7 mps 739 mmHg 84%
    11:00 +14°C° 1.4 mm 7 mps 739 mmHg 85%
    12:00 +14°C° 1.4 mm 7 mps 739 mmHg 85%
    13:00 +14°C° 0 mm 7 mps 740 mmHg 85%
    14:00 +14°C° 1 mm 7 mps 740 mmHg 85%
    15:00 +14°C° 1 mm 7 mps 740 mmHg 85%
    16:00 +14°C° 1 mm 7 mps 740 mmHg 85%
    17:00 +14°C° 0.8 mm 7 mps 741 mmHg 86%
    18:00 +12°C° 0.8 mm 7 mps 741 mmHg 86%
    19:00 +12°C° 0.8 mm 7 mps 741 mmHg 87%
    20:00 +13°C° 0.7 mm 6 mps 741 mmHg 87%
    21:00 +13°C° 0.7 mm 6 mps 742 mmHg 88%
    22:00 +13°C° 0.7 mm 6 mps 742 mmHg 88%
    23:00 +11°C° 1.1 mm 6 mps 742 mmHg 88%

    Tomorrow, 23 May, Thursday

    Time Temperature Precipitation Wind Pressure Humidity
    00:00 +11°C° 1.1 mm 6 mps 743 mmHg 88%
    01:00 +11°C° 1.1 mm 6 mps 743 mmHg 88%
    02:00 +11°C° 0.4 mm 6 mps 743 mmHg 88%
    03:00 +10°C° 0.4 mm 6 mps 743 mmHg 88%
    04:00 +10°C° 0.4 mm 5 mps 743 mmHg 88%
    05:00 +10°C° 0.2 mm 6 mps 743 mmHg 87%
    06:00 +10°C° 0.2 mm 6 mps 743 mmHg 86%
    07:00 +10°C° 0.2 mm 6 mps 744 mmHg 86%
    08:00 +10°C° 0.1 mm 6 mps 744 mmHg 83%
    09:00 +11°C° 0.1 mm 6 mps 744 mmHg 80%
    10:00 +11°C° 0.1 mm 6 mps 744 mmHg 77%
    11:00 +14°C° 0 mm 6 mps 744 mmHg 70%
    12:00 +15°C° 0 mm 6 mps 744 mmHg 63%
    13:00 +17°C° 0 mm 6 mps 744 mmHg 56%
    14:00 +17°C° 0 mm 6 mps 743 mmHg 55%
    15:00 +17°C° 0 mm 6 mps 743 mmHg 54%
    16:00 +17°C° 0 mm 5 mps 743 mmHg 53%
    17:00 +17°C° 0 mm 4 mps 743 mmHg 58%
    18:00 +16°C° 0 mm 3 mps 743 mmHg 63%
    19:00 +15°C° 0 mm 2 mps 743 mmHg 68%
    20:00 +14°C° 0 mm 2 mps 743 mmHg 71%
    21:00 +14°C° 0 mm 2 mps 744 mmHg 73%
    22:00 +13°C° 0 mm 2 mps 744 mmHg 75%
    23:00 +12°C° 0 mm 2 mps 744 mmHg 75%

    Day after tomorrow, 24 May, Friday

    Time Temperature Precipitation Wind Pressure Humidity
    00:00 +10°C° 0 mm 2 mps 744 mmHg 75%
    01:00 +10°C° 0 mm 2 mps 744 mmHg 75%
    02:00 +9°C° 0 mm 2 mps 744 mmHg 75%
    03:00 +9°C° 0 mm 2 mps 743 mmHg 74%
    04:00 +9°C° 0 mm 3 mps 743 mmHg 73%
    05:00 +10°C° 0 mm 3 mps 743 mmHg 71%
    06:00 +11°C° 0 mm 3 mps 743 mmHg 69%
    07:00 +13°C° 0 mm 3 mps 743 mmHg 66%
    08:00 +14°C° 0 mm 3 mps 743 mmHg 62%
    09:00 +17°C° 0 mm 3 mps 743 mmHg 57%
    10:00 +19°C° 0 mm 3 mps 743 mmHg 53%
    11:00 +19°C° 0 mm 3 mps 742 mmHg 50%
    12:00 +20°C° 0 mm 3 mps 742 mmHg 48%
    13:00 +21°C° 0 mm 3 mps 742 mmHg 46%
    14:00 +21°C° 0 mm 3 mps 742 mmHg 46%
    15:00 +21°C° 0 mm 3 mps 741 mmHg 46%
    16:00 +21°C° 0 mm 3 mps 741 mmHg 46%
    17:00 +20°C° 0 mm 2 mps 741 mmHg 51%
    18:00 +19°C° 0 mm 2 mps 741 mmHg 55%
    19:00 +18°C° 0 mm 1 mps 741 mmHg 60%
    20:00 +16°C° 0 mm 1 mps 741 mmHg 62%
    21:00 +15°C° 0 mm 1 mps 741 mmHg 64%
    22:00 +14°C° 0 mm 1 mps 742 mmHg 66%
    23:00 +14°C° 0 mm 1 mps 742 mmHg 68%

    25 May, Saturday

    Time Temperature Precipitation Wind Pressure Humidity
    00:00 +13°C° 0 mm 1 mps 742 mmHg 70%
    01:00 +12°C° 0 mm 1 mps 742 mmHg 73%
    02:00 +12°C° 0 mm 1 mps 742 mmHg 74%
    03:00 +12°C° 0 mm 1 mps 742 mmHg 76%
    04:00 +11°C° 0 mm 1 mps 742 mmHg 78%
    05:00 +13°C° 0 mm 1 mps 742 mmHg 74%
    06:00 +14°C° 0 mm 1 mps 742 mmHg 70%
    07:00 +16°C° 0 mm 1 mps 742 mmHg 66%
    08:00 +19°C° 0 mm 1 mps 742 mmHg 61%
    09:00 +21°C° 0 mm 1 mps 742 mmHg 56%
    10:00 +23°C° 0 mm 1 mps 742 mmHg 51%
    11:00 +24°C° 0 mm 1 mps 742 mmHg 47%
    12:00 +25°C° 0 mm 1 mps 742 mmHg 44%
    13:00 +24°C° 0 mm 0 mps 741 mmHg 40%
    14:00 +26°C° 0 mm 1 mps 741 mmHg 40%
    15:00 +26°C° 0 mm 1 mps 741 mmHg 40%
    16:00 +26°C° 0 mm 1 mps 740 mmHg 40%
    17:00 +24°C° 0 mm 1 mps 740 mmHg 45%
    18:00 +23°C° 0 mm 1 mps 740 mmHg 50%
    19:00 +21°C° 0 mm 1 mps 740 mmHg 55%
    20:00 +20°C° 0 mm 1 mps 741 mmHg 59%
    21:00 +19°C° 0 mm 1 mps 741 mmHg 63%
    22:00 +16°C° 0 mm 0 mps 741 mmHg 67%
    23:00 +16°C° 0 mm 1 mps 741 mmHg 71%

    26 May, Sunday

    Time Temperature Precipitation Wind Pressure Humidity
    00:00 +15°C° 0 mm 1 mps 741 mmHg 75%
    01:00 +15°C° 0 mm 1 mps 741 mmHg 79%
    02:00 +14°C° 0 mm 1 mps 741 mmHg 82%
    03:00 +14°C° 0 mm 1 mps 741 mmHg 84%
    04:00 +14°C° 0 mm 1 mps 741 mmHg 86%
    05:00 +15°C° 0 mm 2 mps 741 mmHg 82%
    06:00 +16°C° 0 mm 2 mps 741 mmHg 79%
    07:00 +17°C° 0 mm 3 mps 741 mmHg 75%
    08:00 +18°C° 0 mm 3 mps 741 mmHg 71%
    09:00 +20°C° 0 mm 3 mps 741 mmHg 66%
    10:00 +21°C° 0 mm 3 mps 741 mmHg 62%
    11:00 +22°C° 0.2 mm 3 mps 741 mmHg 62%
    12:00 +22°C° 0.2 mm 3 mps 741 mmHg 61%
    13:00 +24°C° 0.2 mm 3 mps 741 mmHg 60%
    14:00 +24°C° 0.7 mm 3 mps 741 mmHg 62%
    15:00 +22°C° 0.7 mm 3 mps 741 mmHg 63%
    16:00 +22°C° 0.7 mm 3 mps 741 mmHg 64%
    17:00 +21°C° 0.1 mm 3 mps 741 mmHg 65%
    18:00 +20°C° 0.1 mm 3 mps 741 mmHg 66%
    19:00 +19°C° 0.1 mm 3 mps 741 mmHg 67%
    20:00 +17°C° 0 mm 2 mps 742 mmHg 69%
    21:00 +16°C° 0 mm 2 mps 742 mmHg 71%
    22:00 +15°C° 0 mm 1 mps 743 mmHg 73%
    23:00 +14°C° 0 mm 1 mps 743 mmHg 75%

    27 May, Monday

    Time Temperature Precipitation Wind Pressure Humidity
    00:00 +13°C° 0 mm 1 mps 743 mmHg 77%
    01:00 +13°C° 0 mm 1 mps 743 mmHg 79%
    02:00 +12°C° 0 mm 1 mps 743 mmHg 80%
    03:00 +12°C° 0 mm 1 mps 743 mmHg 81%
    04:00 +12°C° 0 mm 1 mps 743 mmHg 82%
    05:00 +12°C° 0 mm 0 mps 743 mmHg 77%
    06:00 +13°C° 0 mm 0 mps 743 mmHg 72%
    07:00 +15°C° 0 mm 0 mps 743 mmHg 68%
    08:00 +18°C° 0 mm 1 mps 743 mmHg 63%
    09:00 +19°C° 0 mm 2 mps 742 mmHg 59%
    10:00 +20°C° 0 mm 2 mps 742 mmHg 54%
    11:00 +20°C° 0 mm 2 mps 742 mmHg 54%
    12:00 +21°C° 0 mm 3 mps 742 mmHg 54%
    13:00 +21°C° 0 mm 3 mps 741 mmHg 54%
    14:00 +21°C° 0 mm 3 mps 741 mmHg 55%
    15:00 +21°C° 0 mm 3 mps 740 mmHg 57%
    16:00 +21°C° 0 mm 3 mps 740 mmHg 59%
    17:00 +20°C° 0 mm 3 mps 740 mmHg 62%
    18:00 +19°C° 0 mm 3 mps 739 mmHg 65%
    19:00 +18°C° 0 mm 3 mps 739 mmHg 68%
    20:00 +17°C° 0 mm 3 mps 739 mmHg 69%
    21:00 +17°C° 0 mm 3 mps 739 mmHg 70%
    22:00 +16°C° 0 mm 2 mps 739 mmHg 71%
    23:00 +16°C° 0 mm 2 mps 739 mmHg 73%
    Show more